Tracking 19176 objects as of 25-May-2018
HD Live streaming from Space Station
objects crossing your sky now

BREEZE-M R/B

Track BREEZE-M R/B now!


NORAD ID: 27633
Int'l Code: 2002-062B
Perigee: 8,078.7 km
Apogee: 35,495.0 km
Inclination: 16.0 °
Period: 783.7 minutes
Semi major axis: 28157 km
RCS: 9.602 m2 (large)
Launch date: December 29, 2002
Source: Commonwealth of Independent States (former USSR) (CIS)
Launch site: TYURATAM MISSILE AND SPACE COMPLEX (TTMTR)

Note: This is a ROCKET BODY
aabbcc
Your satellite tracking list
Your tracking list is empty




NASA's NSSDC Master Catalog

Two Line Element Set (TLE):
1 27633U 02062B   18145.46337588 -.00000145  00000-0  00000+0 0  9994
2 27633  16.0483 285.5913 4868307 272.8584  78.1372  1.83739942103389
Source of the keplerian elements: AFSPC